CENTAURI-4 (TYVAK-0211) (48898 NORAD) Tracking and Keplerian Element Data

This shows tracking and keplerian element data for the satellite.

Feedback or suggestion? Click here.




ElementValue
Catalog48898
NameCENTAURI-4 (TYVAK-0211)
Epoch Orbit1679
Epoch Day287.91988409
Epoch Year2021
RAAN55.1215
Inclination97.5275
Eccentricity0.0009783
Argument of Perigee228.4844
Mean Anonmoly131.5548
Mean Motion15.12540153
Decay Rate3.337E-05
L11 48898U 21059V 21287.91988409 .00003337 00000-0 19501-3 0 9997
L22 48898 97.5275 55.1215 0009783 228.4844 131.5548 15.12540153 16799

Live tracking and technical data element details for CENTAURI-4 (TYVAK-0211) (NORAD 48898). CENTAURI-4 (TYVAK-0211) can be tracked NOW for your location showing map with azimuth and elevation plus other details from your city location.

Track the satellite on the map from your city or location and see movement details for azimuth, elevation, latitude, longitude, range, height, and movement on the map or in text.







IsCatalogInMostPopularTable: catalog: 48898, numindb: 19
Update: records affected: 1



GetName: 48898 CENTAURI-4 (TYVAK-0211)

Hit Count: updated at: Tue, 19 Oct 2021 08:57:12 GMT